| time (UTC) | temp F | wind direction | speed MPH | gust MPH | rain 1hr in | rain 24hr in | rain mn in | humidity % | barometer mb |
| 20260507174537 | 62 | 275 | 3.0 | 12.0 | 0.00 | 0.00 | 0.00 | 56 | 1019.2 |
| 20260507173035 | 61 | 292 | 3.0 | 12.0 | 0.00 | 0.00 | 0.00 | 59 | 1019.3 |
| 20260507171605 | 60 | 303 | 4.0 | 14.0 | 0.00 | 0.00 | 0.00 | 60 | 1019.3 |
| 20260507170033 | 60 | 303 | 4.0 | 15.0 | 0.00 | 0.00 | 0.00 | 61 | 1019.2 |
| 20260507164535 | 59 | 293 | 3.0 | 17.0 | 0.00 | 0.00 | 0.00 | 63 | 1019.5 |
| 20260507161533 | 58 | 276 | 3.0 | 16.0 | 0.00 | 0.00 | 0.00 | 65 | 1019.6 |
| 20260507160037 | 57 | 275 | 2.0 | 12.0 | 0.00 | 0.00 | 0.00 | 67 | 1019.7 |
| 20260507154535 | 57 | 276 | 2.0 | 11.0 | 0.00 | 0.00 | 0.00 | 68 | 1019.8 |
| 20260507153111 | 56 | 281 | 2.0 | 9.0 | 0.00 | 0.00 | 0.00 | 70 | 1019.8 |
| 20260507151537 | 56 | 285 | 2.0 | 11.0 | 0.00 | 0.00 | 0.00 | 71 | 1019.9 |
| 20260507144534 | 54 | 283 | 2.0 | 10.0 | 0.00 | 0.00 | 0.00 | 76 | 1020.1 |
| 20260507143031 | 52 | 288 | 2.0 | 10.0 | 0.00 | 0.00 | 0.00 | 79 | 1020.0 |
| 20260507141535 | 52 | 296 | 2.0 | 13.0 | 0.00 | 0.00 | 0.00 | 78 | 1020.0 |
| 20260507140033 | 53 | 321 | 4.0 | 13.0 | 0.00 | 0.00 | 0.00 | 78 | 1019.8 |
| 20260507134535 | 52 | 315 | 4.0 | 13.0 | 0.00 | 0.00 | 0.00 | 79 | 1019.5 |
| 20260507131535 | 52 | 321 | 3.0 | 12.0 | 0.00 | 0.00 | 0.00 | 81 | 1019.3 |
| 20260507130032 | 52 | 311 | 2.0 | 11.0 | 0.00 | 0.00 | 0.00 | 81 | 1019.2 |
| 20260507124604 | 52 | 309 | 2.0 | 11.0 | 0.00 | 0.00 | 0.00 | 80 | 1019.1 |
| 20260507121607 | 53 | 311 | 3.0 | 13.0 | 0.00 | 0.00 | 0.00 | 79 | 1019.3 |
| 20260507120033 | 53 | 306 | 2.0 | 11.0 | 0.00 | 0.00 | 0.00 | 79 | 1019.3 |
| 20260507113035 | 53 | 295 | 2.0 | 12.0 | 0.00 | 0.00 | 0.00 | 79 | 1019.2 |
| 20260507110108 | 54 | 296 | 2.0 | 13.0 | 0.00 | 0.00 | 0.00 | 79 | 1019.0 |
| 20260507101531 | 54 | 289 | 3.0 | 12.0 | 0.00 | 0.00 | 0.00 | 78 | 1019.0 |
| 20260507100049 | 55 | 292 | 3.0 | 11.0 | 0.00 | 0.00 | 0.00 | 78 | 1019.1 |
| 20260507094531 | 55 | 298 | 2.0 | 13.0 | 0.00 | 0.00 | 0.00 | 78 | 1019.1 |
| 20260507093037 | 55 | 289 | 2.0 | 10.0 | 0.00 | 0.00 | 0.00 | 77 | 1019.1 |
| 20260507091531 | 55 | 292 | 2.0 | 12.0 | 0.00 | 0.00 | 0.00 | 77 | 1019.1 |
| 20260507090032 | 56 | 296 | 2.0 | 11.0 | 0.00 | 0.00 | 0.00 | 77 | 1019.2 |
| 20260507084535 | 56 | 276 | 2.0 | 10.0 | 0.00 | 0.00 | 0.00 | 77 | 1019.2 |
| 20260507083038 | 56 | 284 | 3.0 | 12.0 | 0.00 | 0.00 | 0.00 | 77 | 1019.1 |
| 20260507081540 | 56 | 297 | 3.0 | 12.0 | 0.00 | 0.00 | 0.00 | 77 | 1019.2 |
| 20260507080104 | 56 | 306 | 4.0 | 13.0 | 0.00 | 0.00 | 0.00 | 78 | 1019.2 |
| 20260507074535 | 56 | 311 | 3.0 | 9.0 | 0.00 | 0.00 | 0.00 | 78 | 1019.3 |
| 20260507073037 | 56 | 305 | 2.0 | 13.0 | 0.00 | 0.00 | 0.00 | 78 | 1019.4 |
| 20260507064650 | 58 | 282 | 2.0 | 11.0 | 0.00 | 0.00 | 0.00 | 77 | 1019.6 |
| 20260507061534 | 58 | 305 | 3.0 | 12.0 | 0.00 | 0.00 | 0.00 | 77 | 1019.5 |
| 20260507060036 | 58 | 285 | 1.0 | 8.0 | 0.00 | 0.00 | 0.00 | 76 | 1019.7 |
| 20260507054534 | 59 | 272 | 1.0 | 8.0 | 0.00 | 0.00 | 0.00 | 75 | 1019.8 |
| 20260507053033 | 59 | 249 | 1.0 | 7.0 | 0.00 | 0.00 | 0.00 | 75 | 1020.0 |
| 20260507050033 | 60 | 238 | 2.0 | 8.0 | 0.00 | 0.00 | 0.00 | 74 | 1019.9 |
| 20260507044535 | 60 | 275 | 1.0 | 7.0 | 0.00 | 0.00 | 0.00 | 74 | 1019.8 |
| 20260507043108 | 61 | 240 | 2.0 | 7.0 | 0.00 | 0.00 | 0.00 | 73 | 1019.7 |
| 20260507041529 | 61 | 272 | 1.0 | 11.0 | 0.00 | 0.00 | 0.00 | 72 | 1019.6 |
| 20260507034532 | 62 | 305 | 3.0 | 10.0 | 0.00 | 0.00 | 0.00 | 68 | 1019.0 |
| 20260507033035 | 63 | 325 | 2.0 | 17.0 | 0.00 | 0.00 | 0.00 | 64 | 1018.8 |
| 20260507031532 | 63 | 308 | 2.0 | 7.0 | 0.00 | 0.00 | 0.00 | 61 | 1018.7 |
| 20260507030037 | 64 | 292 | 1.0 | 9.0 | 0.00 | 0.00 | 0.00 | 59 | 1018.7 |
| 20260507024534 | 65 | 254 | 1.0 | 7.0 | 0.00 | 0.00 | 0.00 | 57 | 1018.6 |
| 20260507020029 | 67 | 240 | 2.0 | 11.0 | 0.00 | 0.00 | 0.00 | 56 | 1018.4 |
| 20260507014649 | 67 | 251 | 2.0 | 10.0 | 0.00 | 0.00 | 0.00 | 56 | 1018.3 |
| 20260507011535 | 68 | 262 | 3.0 | 10.0 | 0.00 | 0.00 | 0.00 | 54 | 1018.4 |
| 20260507010036 | 68 | 263 | 1.0 | 9.0 | 0.00 | 0.00 | 0.00 | 56 | 1018.5 |
| 20260507004532 | 66 | 260 | 2.0 | 11.0 | 0.00 | 0.00 | 0.00 | 57 | 1018.5 |
| 20260507001537 | 66 | 262 | 1.0 | 8.0 | 0.00 | 0.00 | 0.00 | 57 | 1018.4 |
| 20260507000037 | 66 | 279 | 2.0 | 10.0 | 0.00 | 0.00 | 0.00 | 57 | 1018.3 |
| 20260506233031 | 67 | 268 | 2.0 | 12.0 | 0.00 | 0.00 | 0.00 | 57 | 1018.2 |
| 20260506231531 | 67 | 267 | 1.0 | 8.0 | 0.00 | 0.00 | 0.00 | 58 | 1018.3 |
| 20260506230037 | 67 | 222 | 1.0 | 11.0 | 0.00 | 0.00 | 0.00 | 56 | 1018.3 |
| 20260506224531 | 69 | 231 | 2.0 | 11.0 | 0.00 | 0.00 | 0.00 | 54 | 1018.4 |
| 20260506223036 | 70 | 232 | 2.0 | 9.0 | 0.00 | 0.00 | 0.00 | 54 | 1018.4 |
| 20260506221537 | 71 | 241 | 2.0 | 7.0 | 0.00 | 0.00 | 0.00 | 54 | 1018.4 |
| 20260506220039 | 71 | 240 | 3.0 | 11.0 | 0.00 | 0.00 | 0.00 | 55 | 1018.4 |
| 20260506214537 | 70 | 236 | 3.0 | 12.0 | 0.00 | 0.00 | 0.00 | 55 | 1018.5 |
| 20260506213036 | 70 | 236 | 3.0 | 18.0 | 0.00 | 0.00 | 0.00 | 54 | 1018.6 |
| 20260506210034 | 70 | 279 | 4.0 | 20.0 | 0.00 | 0.00 | 0.00 | 54 | 1018.4 |
| 20260506204531 | 71 | 299 | 3.0 | 16.0 | 0.00 | 0.00 | 0.00 | 54 | 1018.6 |
| 20260506203036 | 70 | 288 | 2.0 | 10.0 | 0.00 | 0.00 | 0.00 | 55 | 1019.1 |
| 20260506200105 | 70 | 304 | 4.0 | 12.0 | 0.00 | 0.00 | 0.00 | 55 | 1019.0 |
| 20260506194532 | 70 | 297 | 3.0 | 14.0 | 0.00 | 0.00 | 0.00 | 56 | 1019.0 |
| 20260506193031 | 70 | 291 | 3.0 | 11.0 | 0.00 | 0.00 | 0.00 | 56 | 1019.1 |
| 20260506191537 | 69 | 286 | 2.0 | 13.0 | 0.00 | 0.00 | 0.00 | 57 | 1019.2 |
| 20260506190038 | 70 | 268 | 3.0 | 13.0 | 0.00 | 0.00 | 0.00 | 57 | 1019.4 |
| 20260506184536 | 69 | 261 | 2.0 | 10.0 | 0.00 | 0.00 | 0.00 | 60 | 1019.3 |
| 20260506181608 | 68 | 291 | 2.0 | 13.0 | 0.00 | 0.00 | 0.00 | 62 | 1019.2 |
| 20260506180035 | 68 | 266 | 3.0 | 16.0 | 0.00 | 0.00 | 0.00 | 62 | 1019.2 |